Перести облаци с вероятност за буреносни облаци
Лек дъжд с възможни бури
Лек дъжд с възможни бури
Лек дъжд с възможни бури
Лек дъжд с възможни бури
Лек дъжд с възможни бури
Лек дъжд с възможни бури
(°C)
24°
24°
22°
22°
20°
20°
19°
19°
18°
18°
17°
17°
16°
16°
(°C)
23°
21°
20°
19°
18°
17°
16°
Ю
Ю
И
И
ИСИ
СИ
ЮЮИ
(km/h)
8-23
8-29
7-27
6-19
5-19
5-16
4-14
(мм)
0
0.1
0.8
0.3
0.3
0.4
2
(%)
48
61
77
70
77
77
84

Издигане на слънцето

/ 38.8°
sun-icon
UV 5
06:12
20:54
Намаляваща луна (204°)
23:21
07:08

METAR за Янина (LGIO)

Час Условия Температура/
Точка на оросяване
Вятър Видимост Времето Облаци Налягане Промяна Сурови
VFR 25°C / 12°C 120º variable 090º to 160º 6kt 9700m - Scattered Clouds 3000ft
Scattered Clouds 3500ft
1013 - LGIO 251350Z 12006KT 090V160 9999 SCT030TCU SCT035 25/12 Q1013
VFR 25°C / 11°C 290º variable 240º to 320º 4kt 9700m - Few Clouds 3000ft
Scattered Clouds 3500ft
1014 - LGIO 251320Z 29004KT 240V320 9999 FEW030TCU SCT035 25/11 Q1014
VFR 25°C / 11°C 230º variable 150º to 280º 4kt 9700m - Few Clouds 3000ft
Scattered Clouds 3500ft
1014 - LGIO 251250Z 23004KT 150V280 9999 FEW030TCU SCT035 25/11 Q1014
26°C / 9°C 3kt - 1014 - LGIO 251220Z AUTO VRB03KT //// // ////// 26/09 Q1014 RE//
26°C / 10°C 110º variable 070º to 130º 4kt - 1014 - LGIO 251150Z AUTO 11004KT 070V130 //// // ////// 26/10 Q1014 RE//
27°C / 11°C 110º 5kt - 1014 - LGIO 251120Z AUTO 11005KT //// // ////// 27/11 Q1014 RE//
VFR 26°C / 11°C 100º 7kt 9700m - Few Clouds 3000ft
Scattered Clouds 3500ft
1015 - LGIO 251050Z 10007KT 9999 FEW030TCU SCT035 26/11 Q1015
VFR 27°C / 10°C 100º 7kt 9700m - Few Clouds 3000ft
Scattered Clouds 3500ft
1015 - LGIO 251020Z 10007KT 9999 FEW030TCU SCT035 27/10 Q1015
VFR 27°C / 10°C 110º 5kt 9700m - Few Clouds 3000ft
Scattered Clouds 3500ft
1015 - LGIO 250950Z 11005KT 9999 FEW030TCU SCT035 27/10 Q1015
VFR 26°C / 10°C variable 0kt 9700m - Few Clouds 3000ft 1016 - LGIO 250920Z 00000KT 9999 FEW030 26/10 Q1016
VFR 24°C / 12°C variable 0kt 9700m - Few Clouds 3000ft 1016 - LGIO 250850Z 00000KT 9999 FEW030 24/12 Q1016
VFR 23°C / 12°C 20º variable 310º to 070º 4kt 9700m - Few Clouds 3000ft 1016 - LGIO 250820Z 02004KT 310V070 9999 FEW030 23/12 Q1016
VFR 22°C / 12°C 3kt 9700m - Few Clouds 3000ft 1016 - LGIO 250750Z VRB03KT 9999 FEW030 22/12 Q1016
VFR 21°C / 12°C 3kt 9700m - Few Clouds 3000ft 1016 - LGIO 250720Z VRB03KT 9999 FEW030 21/12 Q1016
VFR 19°C / 13°C 3kt 9700m - Few Clouds 3000ft 1017 - LGIO 250650Z VRB03KT 9999 FEW030 19/13 Q1017
VFR 18°C / 12°C 2kt 9700m - Clouds and Visibility OK 1017 - LGIO 250620Z VRB02KT CAVOK 18/12 Q1017
VFR 16°C / 13°C 2kt 9700m - Clouds and Visibility OK 1017 - LGIO 250550Z VRB02KT CAVOK 16/13 Q1017
15°C / 12°C 2kt - 1017 - LGIO 250520Z AUTO VRB02KT //// // ////// 15/12 Q1017 RE//
12°C / 10°C 1kt - 1017 - LGIO 250450Z AUTO VRB01KT //// // ////// 12/10 Q1017 RE//
10°C / 10°C 2kt - 1017 - LGIO 250420Z AUTO VRB02KT //// // ////// 10/10 Q1017 RE//
9°C / 9°C 1kt - 1017 - LGIO 250350Z AUTO VRB01KT //// // ////// 09/09 Q1017 RE//
9°C / 9°C variable 0kt - 1017 - LGIO 250320Z AUTO 00000KT //// // ////// 09/09 Q1017 RE//
9°C / 9°C 2kt - 1017 - LGIO 250250Z AUTO VRB02KT //// // ////// 09/09 Q1017 RE//
9°C / 9°C 1kt - 1017 - LGIO 250220Z AUTO VRB01KT //// // ////// 09/09 Q1017 RE//

VFR

25°C / 12°C

[Още]
Вятър 120º variable 090º to 160º 6kt
Видимост 9700m
Времето -
Облаци Scattered Clouds 3000ft
Scattered Clouds 3500ft
Налягане 1013
Промяна -
Сурови LGIO 251350Z 12006KT 090V160 9999 SCT030TCU SCT035 25/12 Q1013

VFR

25°C / 11°C

[Още]
Вятър 290º variable 240º to 320º 4kt
Видимост 9700m
Времето -
Облаци Few Clouds 3000ft
Scattered Clouds 3500ft
Налягане 1014
Промяна -
Сурови LGIO 251320Z 29004KT 240V320 9999 FEW030TCU SCT035 25/11 Q1014

VFR

25°C / 11°C

[Още]
Вятър 230º variable 150º to 280º 4kt
Видимост 9700m
Времето -
Облаци Few Clouds 3000ft
Scattered Clouds 3500ft
Налягане 1014
Промяна -
Сурови LGIO 251250Z 23004KT 150V280 9999 FEW030TCU SCT035 25/11 Q1014

26°C / 9°C

[Още]
Вятър 3kt
Видимост
Времето -
Облаци
Налягане 1014
Промяна -
Сурови LGIO 251220Z AUTO VRB03KT //// // ////// 26/09 Q1014 RE//

26°C / 10°C

[Още]
Вятър 110º variable 070º to 130º 4kt
Видимост
Времето -
Облаци
Налягане 1014
Промяна -
Сурови LGIO 251150Z AUTO 11004KT 070V130 //// // ////// 26/10 Q1014 RE//

27°C / 11°C

[Още]
Вятър 110º 5kt
Видимост
Времето -
Облаци
Налягане 1014
Промяна -
Сурови LGIO 251120Z AUTO 11005KT //// // ////// 27/11 Q1014 RE//

VFR

26°C / 11°C

[Още]
Вятър 100º 7kt
Видимост 9700m
Времето -
Облаци Few Clouds 3000ft
Scattered Clouds 3500ft
Налягане 1015
Промяна -
Сурови LGIO 251050Z 10007KT 9999 FEW030TCU SCT035 26/11 Q1015

VFR

27°C / 10°C

[Още]
Вятър 100º 7kt
Видимост 9700m
Времето -
Облаци Few Clouds 3000ft
Scattered Clouds 3500ft
Налягане 1015
Промяна -
Сурови LGIO 251020Z 10007KT 9999 FEW030TCU SCT035 27/10 Q1015

VFR

27°C / 10°C

[Още]
Вятър 110º 5kt
Видимост 9700m
Времето -
Облаци Few Clouds 3000ft
Scattered Clouds 3500ft
Налягане 1015
Промяна -
Сурови LGIO 250950Z 11005KT 9999 FEW030TCU SCT035 27/10 Q1015

VFR

26°C / 10°C

[Още]
Вятър variable 0kt
Видимост 9700m
Времето -
Облаци Few Clouds 3000ft
Налягане 1016
Промяна -
Сурови LGIO 250920Z 00000KT 9999 FEW030 26/10 Q1016

VFR

24°C / 12°C

[Още]
Вятър variable 0kt
Видимост 9700m
Времето -
Облаци Few Clouds 3000ft
Налягане 1016
Промяна -
Сурови LGIO 250850Z 00000KT 9999 FEW030 24/12 Q1016

VFR

23°C / 12°C

[Още]
Вятър 20º variable 310º to 070º 4kt
Видимост 9700m
Времето -
Облаци Few Clouds 3000ft
Налягане 1016
Промяна -
Сурови LGIO 250820Z 02004KT 310V070 9999 FEW030 23/12 Q1016

VFR

22°C / 12°C

[Още]
Вятър 3kt
Видимост 9700m
Времето -
Облаци Few Clouds 3000ft
Налягане 1016
Промяна -
Сурови LGIO 250750Z VRB03KT 9999 FEW030 22/12 Q1016

VFR

21°C / 12°C

[Още]
Вятър 3kt
Видимост 9700m
Времето -
Облаци Few Clouds 3000ft
Налягане 1016
Промяна -
Сурови LGIO 250720Z VRB03KT 9999 FEW030 21/12 Q1016

VFR

19°C / 13°C

[Още]
Вятър 3kt
Видимост 9700m
Времето -
Облаци Few Clouds 3000ft
Налягане 1017
Промяна -
Сурови LGIO 250650Z VRB03KT 9999 FEW030 19/13 Q1017

VFR

18°C / 12°C

[Още]
Вятър 2kt
Видимост 9700m
Времето -
Облаци Clouds and Visibility OK
Налягане 1017
Промяна -
Сурови LGIO 250620Z VRB02KT CAVOK 18/12 Q1017

VFR

16°C / 13°C

[Още]
Вятър 2kt
Видимост 9700m
Времето -
Облаци Clouds and Visibility OK
Налягане 1017
Промяна -
Сурови LGIO 250550Z VRB02KT CAVOK 16/13 Q1017

15°C / 12°C

[Още]
Вятър 2kt
Видимост
Времето -
Облаци
Налягане 1017
Промяна -
Сурови LGIO 250520Z AUTO VRB02KT //// // ////// 15/12 Q1017 RE//

12°C / 10°C

[Още]
Вятър 1kt
Видимост
Времето -
Облаци
Налягане 1017
Промяна -
Сурови LGIO 250450Z AUTO VRB01KT //// // ////// 12/10 Q1017 RE//

10°C / 10°C

[Още]
Вятър 2kt
Видимост
Времето -
Облаци
Налягане 1017
Промяна -
Сурови LGIO 250420Z AUTO VRB02KT //// // ////// 10/10 Q1017 RE//

9°C / 9°C

[Още]
Вятър 1kt
Видимост
Времето -
Облаци
Налягане 1017
Промяна -
Сурови LGIO 250350Z AUTO VRB01KT //// // ////// 09/09 Q1017 RE//

9°C / 9°C

[Още]
Вятър variable 0kt
Видимост
Времето -
Облаци
Налягане 1017
Промяна -
Сурови LGIO 250320Z AUTO 00000KT //// // ////// 09/09 Q1017 RE//

9°C / 9°C

[Още]
Вятър 2kt
Видимост
Времето -
Облаци
Налягане 1017
Промяна -
Сурови LGIO 250250Z AUTO VRB02KT //// // ////// 09/09 Q1017 RE//

9°C / 9°C

[Още]
Вятър 1kt
Видимост
Времето -
Облаци
Налягане 1017
Промяна -
Сурови LGIO 250220Z AUTO VRB01KT //// // ////// 09/09 Q1017 RE//

TAF за Янина (LGIO)

From till


From till Wind 3kt. Visibility 9700m. Scattered Clouds 2500ft. Broken Clouds 8000ft.
With 40% probability, Temporarly from till Visibility 5000m. Showers Rain . Few Clouds 1800ft. Scattered Clouds 2500ft. Broken Clouds 7000ft.
With 40% probability, Temporarly from till Visibility 3000m. Thunderstorm Rain . Few Clouds 1800ft. Broken Clouds 2000ft. Overcast 7000ft.

Сурови: TAF LGIO 251100Z 2512/2521 VRB03KT 9999 SCT025 BKN080 PROB40 TEMPO 2512/2521 5000 SHRA FEW018TCU SCT025 BKN070 PROB40 TEMPO 2512/2521 3000 TSRA FEW018CB BKN020 OVC070

Радар и валежи в момента за Янина

Ситен дъжд
Лек
Умерен
Силен
Много силен
Аве

Маркерът за локация обозначава Янина. Тази анимация показва радара за валежи за избрания времеви диапазон, както и 2h прогноза. Оранжеви кръстчета показват мълнии. Данните са предоставени от nowcast.de (налични в САЩ, Европа и Австралия). Дъждът или лекият сняг може да са невидими за радара. Интензивността на валежите е обозначена с цветни кодове, вариращи от тюркоазено до червено.

Актуални сателитни и дъждовни снимки за Янина, Гърция

Маркерът за локация е поставен върху Янина. [Още]

Сателитното изображение в реално време съчетава видимата светлина през деня с инфрачервеното лъчение през нощта. През нощта изображението не е тъмно, тъй като инфрачервеното лъчение може да открива температурни разлики. За съжаление ниските облаци и мъглата са трудни за разграничаване от температурите на земята и затова могат да бъдат почти невидими през нощта. Сателитните изображения на Meteosat за Европа се актуализират в реално време на всеки 5 минути. Изображенията GOES-16/GOES-17 (Северна и Южна Америка) и Химавари (Азия) се актуализират на всеки 10 минути.

Количеството на валежите се изчислява от радари и спътници. Оценките на валежите от сателити са по-малко точни през нощта, отколкото през деня.

© 2024 meteoblue, NOAA Satellites GOES-16 and EUMETSAT. Данни за светкавици, предоставени от nowcast.

Върнете се в началото
×
Здравейте,
изглежда, че използвате рекламен блокер.

Рекламата е от съществено значение за поддържането на нашия безплатен уебсайт с уникални подробности и точност.

Моля, включете www.meteoblue.com в белия списък на вашия блокер на реклами или помислете за закупуване на някой от нашите продукти:

Вече имате абонамент?
Тогава, моля, влезте.